Location: El Peñón
(10.3719°N, 67.3319°W)
Time: 14:45:10
(UTC+00:00)

Daily predictions for brighter satellites

Satellite Brightness Start Highest point End
(mag) Time Altitude Azimuth Time Altitude Azimuth Time Altitude Azimuth
Centaur D-1AR AC-36 4.4 22:51:18 10° NW 22:56:58 51° NNE 23:43:26 10° E
Cosmos 1452 Rocket 4.2 23:03:36 10° NNW 23:08:44 59° WSW 23:13:53 10° S
Cosmos 1331 Rocket 4.4 23:03:41 10° NNW 23:08:46 67° WSW 23:13:50 10° S
Helios 1B rocket 2.9 23:06:17 10° S 23:10:06 59° WSW 23:13:55 10° NNW
Meteor 1-31 Rocket 4.1 23:07:12 10° S 23:10:40 40° W 23:14:07 10° NNW
Delta 202 4.4 23:06:05 10° WNW 23:11:59 49° N 23:17:04 10° E
Sylda 5 4.1 23:05:55 10° WSW 23:13:07 26° S 23:16:30 10° SE
Cosmos 1536 3.6 23:10:20 10° NNE 23:13:50 30° E 23:17:20 10° SSE
Okean 1 4.3 23:12:17 10° SSW 23:16:02 49° W 23:19:48 10° N
Lacrosse 4 Rocket 1.8 23:11:56 10° N 23:16:02 48° ENE 23:20:11 10° SE
H-2A R/B 1.9 23:10:26 10° WNW 23:17:44 86° SSW 23:21:30 10° SE
ASTRO E2 3.5 23:18:31 10° WSW 23:21:51 45° NNW 23:25:11 10° NE
Cosmos 1302 Rocket 4.1 23:18:48 10° N 23:23:58 63° ENE 23:29:10 10° SSE
Cosmos 1151 Rocket 3.0 23:20:08 10° S 23:24:24 63° E 23:28:38 10° NNE
NOAA 6 4.2 23:20:31 10° S 23:25:38 79° WSW 23:30:46 10° NNW
USA 234 3.3 23:19:22 10° NE 23:25:54 88° ESE 23:32:27 10° SW
Cosmos 1726 1.8 23:24:07 10° N 23:27:08 71° W 23:30:09 10° S
Nadezhda 4 Rocket 4.0 23:25:04 10° S 23:31:12 65° E 23:37:24 10° NNE
Meteor 1-11 Rocket 3.9 23:29:11 10° N 23:35:01 59° E 23:40:51 10° SSE
Okean 3 Rocket 4.1 23:32:04 10° NNW 23:36:24 61° W 23:40:46 10° S
YAOGAN 1 2.5 23:32:59 10° SSE 23:37:16 87° E 23:41:33 10° N
MAQSAT/ARIANE V 4.0 15:34:39 10° W 23:38:11 56° SSW 23:42:07 16° ESE
Cosmos 2082 Rocket 2.1 23:34:34 10° S 23:40:15 77° ESE 23:45:57 10° NNE
Cosmos 1500 Rocket 3.8 23:37:56 10° N 23:42:08 49° E 23:46:17 10° SSE
Meteor PRIRODA 3.5 23:39:12 11° SSE 23:42:21 55° ENE 23:45:37 10° N
Ariane H10 3.5 23:37:56 10° WSW 23:44:12 33° SSW 23:45:58 19° SE
Cosmos 2251 Rocket 3.4 23:40:49 10° S 23:46:02 81° ESE 23:51:18 10° NNE
Landsat 7 3.8 23:42:52 10° S 23:47:33 82° WSW 23:52:15 10° NNW
Cosmos 1340 2.3 23:46:06 10° N 23:49:24 59° E 23:51:37 19° SSE
Delta 128 4.3 23:46:16 10° SW 23:51:41 57° SSE 23:58:08 10° ENE
ADEOS 3.5 23:47:32 10° SSE 23:52:43 77° ENE 23:57:54 10° N
Cosmos 2279 Rocket 4.0 23:46:50 10° N 23:53:03 86° W 23:59:19 10° S
Hubble Space Telescope 3.1 23:53:54 10° WSW 23:55:41 13° SSW 23:57:27 10° S
